When you browse on this site, cookies collect data to enhance your experience and personalize the content and advertising you see.
Visit our Privacy Policy to learn more. By continuing to use the site, you agree to this use of cookies and data.
  • In Belgium
  • List of Countries
  • For 7 days
  • Water Temperature
  • Satellite Maps
  • Weather Map
  • Weather Widgets
  • user-avatar
    Login

    Hourly Weather Baden-Baden

    Today, 19 April, Friday

    Time Temperature Precipitation Wind Pressure Humidity
    00:00 +10°C° 0 mm 2 mps 735 mmHg 81%
    01:00 +10°C° 0 mm 2 mps 735 mmHg 83%
    02:00 +9°C° 0 mm 2 mps 735 mmHg 84%
    03:00 +9°C° 0 mm 2 mps 735 mmHg 86%
    04:00 +8°C° 0 mm 2 mps 735 mmHg 87%
    05:00 +10°C° 0 mm 1 mps 736 mmHg 85%
    06:00 +10°C° 0 mm 1 mps 736 mmHg 82%
    07:00 +11°C° 0 mm 1 mps 736 mmHg 80%
    08:00 +13°C° 0 mm 1 mps 737 mmHg 72%
    09:00 +16°C° 0 mm 1 mps 737 mmHg 63%
    10:00 +19°C° 0 mm 1 mps 737 mmHg 55%
    11:00 +21°C° 0 mm 1 mps 738 mmHg 51%
    12:00 +22°C° 0 mm 1 mps 738 mmHg 48%
    13:00 +23°C° 0 mm 1 mps 738 mmHg 44%
    14:00 +23°C° 0 mm 2 mps 738 mmHg 45%
    15:00 +23°C° 0 mm 2 mps 737 mmHg 45%
    16:00 +23°C° 0 mm 2 mps 737 mmHg 45%
    17:00 +20°C° 0.2 mm 2 mps 737 mmHg 54%
    18:00 +18°C° 0.2 mm 2 mps 737 mmHg 63%
    19:00 +17°C° 0.2 mm 2 mps 737 mmHg 71%
    20:00 +15°C° 0 mm 2 mps 737 mmHg 74%
    21:00 +14°C° 0 mm 2 mps 737 mmHg 76%
    22:00 +13°C° 0 mm 2 mps 738 mmHg 79%
    23:00 +12°C° 0 mm 2 mps 738 mmHg 78%

    Tomorrow, 20 April, Saturday

    Time Temperature Precipitation Wind Pressure Humidity
    00:00 +12°C° 0 mm 1 mps 738 mmHg 78%
    01:00 +11°C° 0 mm 1 mps 738 mmHg 77%
    02:00 +10°C° 0 mm 1 mps 737 mmHg 78%
    03:00 +10°C° 0 mm 1 mps 737 mmHg 78%
    04:00 +10°C° 0 mm 1 mps 737 mmHg 78%
    05:00 +10°C° 0 mm 1 mps 737 mmHg 78%
    06:00 +11°C° 0 mm 1 mps 738 mmHg 78%
    07:00 +11°C° 0 mm 1 mps 738 mmHg 78%
    08:00 +13°C° 0 mm 2 mps 738 mmHg 71%
    09:00 +16°C° 0 mm 2 mps 738 mmHg 64%
    10:00 +18°C° 0 mm 2 mps 738 mmHg 57%
    11:00 +19°C° 0 mm 2 mps 737 mmHg 54%
    12:00 +20°C° 0 mm 3 mps 737 mmHg 51%
    13:00 +21°C° 0 mm 3 mps 737 mmHg 48%
    14:00 +21°C° 0 mm 4 mps 737 mmHg 47%
    15:00 +22°C° 0 mm 4 mps 736 mmHg 46%
    16:00 +22°C° 0 mm 4 mps 736 mmHg 44%
    17:00 +20°C° 0 mm 3 mps 736 mmHg 50%
    18:00 +18°C° 0 mm 3 mps 735 mmHg 56%
    19:00 +17°C° 0 mm 2 mps 735 mmHg 63%
    20:00 +15°C° 0 mm 2 mps 735 mmHg 65%
    21:00 +14°C° 0 mm 2 mps 735 mmHg 67%
    22:00 +12°C° 0 mm 2 mps 735 mmHg 70%
    23:00 +12°C° 0 mm 2 mps 735 mmHg 71%

    Day after tomorrow, 21 April, Sunday

    Time Temperature Precipitation Wind Pressure Humidity
    00:00 +10°C° 0 mm 2 mps 735 mmHg 71%
    01:00 +10°C° 0 mm 2 mps 735 mmHg 72%
    02:00 +9°C° 0 mm 2 mps 735 mmHg 73%
    03:00 +9°C° 0 mm 2 mps 734 mmHg 75%
    04:00 +8°C° 0 mm 2 mps 734 mmHg 76%
    05:00 +9°C° 0 mm 2 mps 734 mmHg 74%
    06:00 +9°C° 0 mm 2 mps 734 mmHg 72%
    07:00 +10°C° 0 mm 2 mps 734 mmHg 70%
    08:00 +13°C° 0 mm 2 mps 734 mmHg 63%
    09:00 +14°C° 0 mm 3 mps 733 mmHg 55%
    10:00 +17°C° 0 mm 3 mps 733 mmHg 47%
    11:00 +19°C° 0 mm 3 mps 733 mmHg 44%
    12:00 +20°C° 0 mm 4 mps 732 mmHg 41%
    13:00 +21°C° 0 mm 4 mps 732 mmHg 38%
    14:00 +21°C° 0 mm 4 mps 731 mmHg 38%
    15:00 +21°C° 0 mm 4 mps 731 mmHg 39%
    16:00 +21°C° 0 mm 4 mps 730 mmHg 39%
    17:00 +20°C° 0 mm 3 mps 730 mmHg 47%
    18:00 +18°C° 0 mm 3 mps 729 mmHg 54%
    19:00 +16°C° 0 mm 2 mps 729 mmHg 61%
    20:00 +15°C° 0 mm 2 mps 729 mmHg 63%
    21:00 +13°C° 0 mm 2 mps 729 mmHg 66%
    22:00 +12°C° 0 mm 1 mps 729 mmHg 68%
    23:00 +11°C° 0 mm 1 mps 728 mmHg 69%

    22 April, Monday

    Time Temperature Precipitation Wind Pressure Humidity
    00:00 +11°C° 0 mm 1 mps 728 mmHg 70%
    01:00 +10°C° 0 mm 1 mps 728 mmHg 71%
    02:00 +10°C° 0 mm 1 mps 727 mmHg 72%
    03:00 +9°C° 0 mm 1 mps 727 mmHg 74%
    04:00 +9°C° 0 mm 1 mps 726 mmHg 75%
    05:00 +10°C° 0 mm 1 mps 726 mmHg 75%
    06:00 +10°C° 0 mm 1 mps 726 mmHg 74%
    07:00 +11°C° 0 mm 1 mps 726 mmHg 74%
    08:00 +13°C° 0 mm 2 mps 725 mmHg 68%
    09:00 +15°C° 0 mm 2 mps 725 mmHg 62%
    10:00 +17°C° 0 mm 2 mps 724 mmHg 56%
    11:00 +18°C° 0 mm 3 mps 724 mmHg 53%
    12:00 +20°C° 0 mm 3 mps 723 mmHg 50%
    13:00 +21°C° 0 mm 3 mps 723 mmHg 47%
    14:00 +21°C° 0 mm 4 mps 722 mmHg 48%
    15:00 +21°C° 0 mm 4 mps 721 mmHg 48%
    16:00 +22°C° 0 mm 4 mps 721 mmHg 48%
    17:00 +20°C° 0 mm 3 mps 720 mmHg 56%
    18:00 +18°C° 0 mm 3 mps 720 mmHg 63%
    19:00 +17°C° 0 mm 2 mps 719 mmHg 70%
    20:00 +16°C° 0 mm 2 mps 719 mmHg 73%
    21:00 +15°C° 0 mm 2 mps 719 mmHg 76%
    22:00 +13°C° 0 mm 2 mps 719 mmHg 79%
    23:00 +13°C° 0 mm 2 mps 718 mmHg 81%

    23 April, Tuesday

    Time Temperature Precipitation Wind Pressure Humidity
    00:00 +12°C° 0 mm 2 mps 718 mmHg 82%
    01:00 +10°C° 0 mm 2 mps 718 mmHg 83%
    02:00 +10°C° 0 mm 2 mps 718 mmHg 84%
    03:00 +10°C° 0 mm 1 mps 717 mmHg 85%
    04:00 +10°C° 0 mm 1 mps 717 mmHg 86%
    05:00 +10°C° 0 mm 1 mps 717 mmHg 85%
    06:00 +11°C° 0 mm 1 mps 717 mmHg 84%
    07:00 +11°C° 0 mm 1 mps 717 mmHg 83%
    08:00 +14°C° 0 mm 1 mps 717 mmHg 76%
    09:00 +16°C° 0 mm 1 mps 718 mmHg 68%
    10:00 +20°C° 0 mm 1 mps 718 mmHg 61%
    11:00 +21°C° 0 mm 1 mps 718 mmHg 58%
    12:00 +22°C° 0 mm 1 mps 718 mmHg 54%
    13:00 +23°C° 0 mm 1 mps 718 mmHg 51%
    14:00 +23°C° 0.2 mm 1 mps 718 mmHg 53%
    15:00 +23°C° 0.2 mm 1 mps 718 mmHg 54%
    16:00 +23°C° 0.2 mm 1 mps 718 mmHg 55%
    17:00 +21°C° 0.4 mm 1 mps 718 mmHg 61%
    18:00 +18°C° 0.4 mm 0 mps 718 mmHg 67%
    19:00 +16°C° 0.4 mm 0 mps 718 mmHg 74%
    20:00 +16°C° 0.3 mm 1 mps 719 mmHg 76%
    21:00 +16°C° 0.3 mm 1 mps 719 mmHg 78%
    22:00 +15°C° 0.3 mm 1 mps 720 mmHg 80%
    23:00 +14°C° 0 mm 1 mps 720 mmHg 81%

    24 April, Wednesday

    Time Temperature Precipitation Wind Pressure Humidity
    00:00 +14°C° 0 mm 1 mps 721 mmHg 83%
    01:00 +13°C° 0 mm 2 mps 721 mmHg 84%
    02:00 +13°C° 0 mm 2 mps 722 mmHg 85%
    03:00 +13°C° 0 mm 1 mps 722 mmHg 86%
    04:00 +13°C° 0 mm 1 mps 722 mmHg 88%
    05:00 +13°C° 0 mm 1 mps 723 mmHg 85%
    06:00 +14°C° 0 mm 1 mps 723 mmHg 82%
    07:00 +14°C° 0 mm 0 mps 723 mmHg 79%
    08:00 +15°C° 0 mm 0 mps 724 mmHg 75%
    09:00 +18°C° 0 mm 1 mps 724 mmHg 70%
    10:00 +20°C° 0 mm 1 mps 725 mmHg 65%
    11:00 +21°C° 0.1 mm 1 mps 725 mmHg 61%
    12:00 +21°C° 0.1 mm 2 mps 724 mmHg 57%
    13:00 +23°C° 0.1 mm 2 mps 724 mmHg 52%
    14:00 +24°C° 0.1 mm 2 mps 724 mmHg 53%
    15:00 +24°C° 0.1 mm 2 mps 724 mmHg 54%
    16:00 +24°C° 0.1 mm 2 mps 724 mmHg 55%
    17:00 +23°C° 0.1 mm 2 mps 724 mmHg 60%
    18:00 +20°C° 0.1 mm 2 mps 724 mmHg 66%
    19:00 +19°C° 0.1 mm 2 mps 724 mmHg 71%
    20:00 +19°C° 0 mm 2 mps 724 mmHg 72%
    21:00 +18°C° 0 mm 2 mps 724 mmHg 73%
    22:00 +17°C° 0 mm 2 mps 724 mmHg 75%
    23:00 +16°C° 0 mm 2 mps 724 mmHg 77%
    Show more